Airfield :
LOGIN :

Register | Disclaimer

   EN    FR    IT 

 










Legend :    VFR   Marginal VFR   IFR   Intensive IFR   Very Intensive IFR
Visi :
Ceiling :
>= 8 km
>= 3000ft
5 to 8 km
1000 to 3000 ft
1500m to 5 km
500 to 1000 ft
800 to 1500m
200 to 500 ft
< 800m
< 200 ft
Symbols :   Thunderstorms  Fog  Heavy snow  Heavy precipitations  Wind > 20 kt
SIGMETs :     Misc.  Thunderstorms  Icing  Turbulence  Mountain Waves  Volcanic Ashes







- Airport Elevation : 65 ft
- IATA code : PMO


LICJ - Palermo Punta Raisi

CURRENT METAR :
  • 262350Z 20001KT CAVOK 27/13 Q1011

EXPIRED METARs :
  • 262320Z 20003KT CAVOK 27/13 Q1012
  • 262250Z 20003KT CAVOK 27/13 Q1012
  • 262220Z 19003KT CAVOK 27/14 Q1012
  • 262150Z 20003KT CAVOK 25/17 Q1012
  • 262120Z 23005KT CAVOK 26/19 Q1012
  • 262050Z 21004KT CAVOK 26/18 Q1012

TAF TAF LICJ
Valid from the 27 at 00:00 until the 28 at 00:00 UTC


262300Z 2700/2724 VRB05KT CAVOK
BECMG 2706/2708 20015G25KT
BECMG 2714/2716 20008KT
No reported NOTAMs for that airfield.



MET'MAP, your aeronautical weather chart ! - Copyright ORBIFLY December 2007 - Disclaimer

ORBIFLY MET'MAP TEAM :

Programming & Development : Alexandra Zaïnal
Concept & Development : Baudouin d'Aumeries
Co-Development & Prog : Marc-Olivier Méhu
Technical & hardware support : Manuel Goepfert

Contact : metmap@orbifly.com




SOURCES & CREDITS :

   NOAA